| time (UTC) | temp F | wind direction | speed MPH | gust MPH | rain 1hr in | rain 24hr in | rain mn in | humidity % | barometer mb |
| 20260503071533 | 39 | 259 | 1.0 | 6.0 | 0.00 | 0.01 | 0.00 | 1 | 1012.0 |
| 20260503054506 | 40 | 300 | 2.0 | 4.0 | 0.00 | 0.01 | 0.00 | 11 | 1012.4 |
| 20260503053101 | 40 | 300 | 1.0 | 5.0 | 0.00 | 0.01 | 0.00 | 16 | 1012.5 |
| 20260503051600 | 40 | 300 | 0.0 | 5.0 | 0.00 | 0.02 | 0.00 | 21 | 1012.7 |
| 20260503050054 | 40 | 296 | 1.0 | 3.0 | 0.00 | 0.02 | 0.00 | 24 | 1012.9 |
| 20260503044551 | 41 | 311 | 2.0 | 5.0 | 0.00 | 0.02 | 0.00 | 28 | 1013.1 |
| 20260503043051 | 41 | 311 | 1.0 | 3.0 | 0.00 | 0.02 | 0.00 | 34 | 1013.2 |
| 20260503041546 | 41 | 311 | 1.0 | 5.0 | 0.00 | 0.03 | 0.02 | 39 | 1013.3 |
| 20260503040040 | 41 | 319 | 1.0 | 4.0 | 0.00 | 0.03 | 0.02 | 43 | 1013.3 |
| 20260503034536 | 41 | 319 | 1.0 | 6.0 | 0.00 | 0.03 | 0.02 | 45 | 1013.2 |
| 20260503033041 | 42 | 309 | 3.0 | 6.0 | 0.00 | 0.03 | 0.02 | 46 | 1013.3 |
| 20260503031527 | 42 | 296 | 3.0 | 7.0 | 0.00 | 0.04 | 0.02 | 47 | 1013.2 |
| 20260503030022 | 42 | 327 | 1.0 | 3.0 | 0.00 | 0.04 | 0.02 | 50 | 1013.2 |
| 20260503024520 | 42 | 333 | 2.0 | 4.0 | 0.00 | 0.04 | 0.02 | 51 | 1013.3 |
| 20260503023013 | 43 | 325 | 1.0 | 5.0 | 0.00 | 0.04 | 0.02 | 51 | 1013.3 |
| 20260503021508 | 43 | 329 | 2.0 | 5.0 | 0.00 | 0.08 | 0.02 | 52 | 1013.3 |
| 20260503020007 | 43 | 49 | 5.0 | 11.0 | 0.00 | 0.08 | 0.02 | 52 | 1013.4 |
| 20260503014625 | 43 | 343 | 4.0 | 8.0 | 0.00 | 0.08 | 0.02 | 52 | 1013.3 |
| 20260503013056 | 44 | 355 | 4.0 | 8.0 | 0.00 | 0.08 | 0.02 | 53 | 1013.3 |
| 20260503011604 | 44 | 334 | 4.0 | 8.0 | 0.00 | 0.10 | 0.02 | 53 | 1013.1 |
| 20260503010053 | 44 | 345 | 2.0 | 6.0 | 0.00 | 0.10 | 0.02 | 53 | 1012.9 |
| 20260503004556 | 44 | 331 | 2.0 | 5.0 | 0.00 | 0.10 | 0.02 | 52 | 1012.8 |
| 20260503003038 | 45 | 333 | 3.0 | 6.0 | 0.00 | 0.10 | 0.02 | 51 | 1012.6 |
| 20260503001534 | 45 | 349 | 5.0 | 10.0 | 0.00 | 0.14 | 0.02 | 51 | 1012.5 |
| 20260503000029 | 46 | 342 | 5.0 | 11.0 | 0.00 | 0.14 | 0.02 | 50 | 1012.5 |
| 20260502234526 | 46 | 351 | 3.0 | 6.0 | 0.00 | 0.14 | 0.02 | 49 | 1012.4 |
| 20260502233020 | 46 | 317 | 3.0 | 11.0 | 0.00 | 0.14 | 0.02 | 50 | 1012.2 |
| 20260502231519 | 47 | 337 | 1.0 | 5.0 | 0.00 | 0.16 | 0.02 | 49 | 1012.0 |
| 20260502230017 | 47 | 315 | 1.0 | 4.0 | 0.00 | 0.16 | 0.02 | 50 | 1012.0 |
| 20260502224511 | 47 | 26 | 1.0 | 3.0 | 0.00 | 0.16 | 0.02 | 50 | 1012.0 |
| 20260502223006 | 47 | 346 | 2.0 | 6.0 | 0.00 | 0.16 | 0.02 | 51 | 1012.0 |
| 20260502221501 | 47 | 360 | 4.0 | 10.0 | 0.00 | 0.16 | 0.02 | 51 | 1012.0 |
| 20260502220104 | 47 | 340 | 4.0 | 10.0 | 0.00 | 0.16 | 0.02 | 50 | 1012.0 |
| 20260502214553 | 48 | 317 | 3.0 | 11.0 | 0.00 | 0.16 | 0.02 | 49 | 1011.9 |
| 20260502213055 | 48 | 296 | 4.0 | 7.0 | 0.00 | 0.16 | 0.02 | 48 | 1011.8 |
| 20260502211558 | 48 | 322 | 3.0 | 10.0 | 0.00 | 0.16 | 0.02 | 48 | 1011.7 |
| 20260502210041 | 48 | 314 | 2.0 | 9.0 | 0.00 | 0.16 | 0.02 | 47 | 1011.7 |
| 20260502204536 | 49 | 348 | 5.0 | 12.0 | 0.00 | 0.16 | 0.02 | 46 | 1011.7 |
| 20260502203031 | 49 | 333 | 5.0 | 11.0 | 0.00 | 0.16 | 0.02 | 44 | 1011.7 |
| 20260502201526 | 50 | 270 | 4.0 | 8.0 | 0.00 | 0.16 | 0.02 | 41 | 1011.7 |
| 20260502200025 | 50 | 271 | 3.0 | 9.0 | 0.00 | 0.16 | 0.02 | 41 | 1011.8 |
| 20260502194518 | 50 | 294 | 5.0 | 11.0 | 0.00 | 0.16 | 0.02 | 40 | 1012.0 |
| 20260502193014 | 50 | 245 | 4.0 | 8.0 | 0.00 | 0.16 | 0.02 | 40 | 1012.2 |
| 20260502191509 | 51 | 294 | 4.0 | 10.0 | 0.00 | 0.16 | 0.02 | 40 | 1012.4 |
| 20260502190008 | 51 | 265 | 4.0 | 8.0 | 0.00 | 0.16 | 0.02 | 40 | 1012.4 |
| 20260502184506 | 51 | 349 | 2.0 | 10.0 | 0.00 | 0.16 | 0.02 | 39 | 1012.5 |
| 20260502183109 | 51 | 304 | 3.0 | 10.0 | 0.00 | 0.16 | 0.02 | 40 | 1012.6 |
| 20260502181555 | 51 | 351 | 3.0 | 10.0 | 0.00 | 0.16 | 0.02 | 40 | 1012.6 |
| 20260502163037 | 54 | 323 | 5.0 | 12.0 | 0.00 | 0.16 | 0.02 | 36 | 1012.7 |
| 20260502161524 | 53 | 28 | 7.0 | 12.0 | 0.00 | 0.16 | 0.02 | 37 | 1012.7 |
| 20260502151502 | 51 | 281 | 6.0 | 15.0 | 0.00 | 0.16 | 0.02 | 42 | 1012.9 |
| 20260502123017 | 42 | 319 | 4.0 | 10.0 | 0.00 | 0.15 | 0.01 | 1 | 1013.4 |
| 20260502121513 | 42 | 300 | 4.0 | 10.0 | 0.00 | 0.15 | 0.01 | 1 | 1013.2 |
| 20260502114611 | 42 | 281 | 4.0 | 7.0 | 0.00 | 0.15 | 0.01 | 1 | 1013.2 |
| 20260502113056 | 42 | 333 | 5.0 | 9.0 | 0.00 | 0.15 | 0.01 | 1 | 1013.3 |
| 20260502111555 | 42 | 306 | 4.0 | 7.0 | 0.00 | 0.15 | 0.01 | 1 | 1013.2 |
| 20260502110047 | 41 | 305 | 2.0 | 5.0 | 0.00 | 0.15 | 0.01 | 1 | 1012.9 |
| 20260502104549 | 41 | 311 | 1.0 | 4.0 | 0.00 | 0.15 | 0.01 | 1 | 1012.9 |
| 20260502103039 | 41 | 309 | 2.0 | 6.0 | 0.00 | 0.15 | 0.01 | 1 | 1012.8 |
| 20260502101552 | 41 | 301 | 1.0 | 3.0 | 0.00 | 0.15 | 0.01 | 1 | 1012.8 |
| 20260502091517 | 41 | 331 | 1.0 | 5.0 | 0.00 | 0.15 | 0.01 | 1 | 1012.2 |
| 20260502080108 | 42 | 279 | 2.0 | 4.0 | 0.00 | 0.15 | 0.01 | 1 | 1011.9 |